Regional Weather Roundup
Issued by NWS

Home | Current Version | Previous Version | Text Only | Print | Product List | Glossary On
Versions: 1 2 3 4 5 6 7 8 9 10 11 12 13 14 15 16 17 18 19 20 21 22 23 24 25 26 27 28 29 30 31 32 33 34 35 36 37 38 39 40 41 42 43 44 45 46 47 48 49 50
000
ASUS42 KTBW 310817
RWRFL
FLORIDA REGIONAL WEATHER ROUNDUP
NATIONAL WEATHER SERVICE TAMPA BAY RUSKIN FL
400 AM EDT FRI JUL 31 2015

NOTE: "FAIR" INDICATES FEW OR NO CLOUDS BELOW 12,000 FEET WITH NO
SIGNIFICANT WEATHER AND/OR OBSTRUCTIONS TO VISIBILITY.


FLZ001>010-012>015-112-114-115-310900-
PANHANDLE FLORIDA

CITY           SKY/WX    TMP DP  RH WIND       PRES   REMARKS
PENSACOLA      MOCLDY    77  74  90 N5        29.88F
PENSACOLA NAS  MOCLDY    76  73  91 N3        29.88F
MILTON NAS     MOCLDY    75  74  96 CALM      29.89F FOG
CRESTVIEW      MOCLDY    76  75  97 CALM      29.91F
DUKE FIELD     FAIR      76  74  95 CALM      29.89F
VALPARAISO     MOCLDY    77  76  95 N2        29.88F
MARY ESTHER    PTCLDY    76  73  90 N6        29.87F
TRI COUNTY     FAIR      75  75 100 N3        29.91F
PANAMA CITY    FAIR      77  75  93 CALM      29.88F
TYNDALL AFB    MOCLDY    78  77  98 NE2       29.88F
APALACHICOLA   PTCLDY    79  76  90 CALM      29.88F

STATION/POSITION SKY/WX   TEMP    WIND        PRES    WAVE   SWELL
                          AIR SEA DIR/SP/G            HT/PER HT/PER
                          (F)     (DEG/KT/KT) (MB)    (FT/S) (FT/S)
30.1N   87.6W              82 85  350/  8/ 10 1011.2F   1/ 4
29.2N   88.2W              84 88   10/ 12/ 14 1011.4F   3/ 6   2/ 6
28.8N   86.0W              83 86   20/  2/  4 1012.0F   3/ 5   2/ 5
PANAMA CITY BEAC           79 85   40/  3/  3 1012.5F
CAPE SAN BLAS    NOT AVBL
TOWER C                    83     190/  5/  6 1011.9F
28.5N   84.5W              83 85  210/ 12/ 14 1013.0F   2/ 5

$$
FLZ011-016>038-118-127-128-134-139-239-310900-
NORTH FLORIDA

CITY           SKY/WX    TMP DP  RH WIND       PRES   REMARKS
MARIANNA       CLEAR     78  77  96 CALM      29.90F
TALLAHASSEE    CLEAR     78  76  93 CALM      29.90F
PERRY          PTCLDY    75  75 100 CALM      29.92F FOG
CROSS CITY       N/A     77  75  93 CALM      29.93F
LAKE CITY      FAIR      75  75 100 SW5       29.93F
GAINESVILLE    PTCLDY    75  74  96 SW7       29.93F
MAYPORT NAS    CLEAR     78  75  90 S5        29.92F
JACKSONVILLE   CLEAR     75  74  96 CALM      29.92S
JAX NAS        PTCLDY    80  75  84 S6        29.93F
JAX CRAIG      CLEAR     78  75  90 SW5       29.92F
JAX CECIL      PTCLDY    73  73 100 S3        29.93F
FERNANDINA BEA FAIR      81  77  89 SW5       29.91S
ST AUGUSTINE   PTCLDY    76  74  93 SW7       29.93F

STATION/POSITION SKY/WX   TEMP    WIND        PRES    WAVE   SWELL
                          AIR SEA DIR/SP/G            HT/PER HT/PER
                          (F)     (DEG/KT/KT) (MB)    (FT/S) (FT/S)
SHELL POINT                82     270/  3/  6   N/A
KEATON BEACH               84     230/ 10/ 12 1013.1F
CEDAR KEY                  82     240/  8/ 11 1014.0F
FERNANDINA                 79 86  230/  7/  9 1012.6F
30.7N   81.3W                 84                N/A     2/ 7
MAYPORT                    79 84  220/  6/  9 1013.5F
31.4N   80.9W              83 83  260/ 10/ 12 1012.7F   2/ 7   2/ 7
ST AUGUSTINE               75 81  230/  6/  8 1014.2F

$$
FLZ040-043>046-052-053-057-058-063-144-310900-
INTERIOR CENTRAL FLORIDA

CITY           SKY/WX    TMP DP  RH WIND       PRES   REMARKS
OCALA          CLEAR     73  73 100 S5        29.95F
THE VILLAGES     N/A     75  75 100 S3        29.86F
LEESBURG       MOCLDY    75  73  93 SW8       29.98R
SANFORD        PTCLDY    76  73  91 SW8       29.96S
ORLANDO EXEC   PTCLDY    76  75  97 SW6       29.97S
ORLANDO INTL   MOCLDY    75  74  96 S3        29.98R
WINTER HAVEN   MOCLDY    77  74  90 S6        29.99R
LAKELAND       PTCLDY    73  73 100 CALM      29.98S
BARTOW         FAIR      73 N/A N/A CALM      29.98F
OKEECHOBEE     MOCLDY    73  73 100 CALM      29.99S

$$
FLZ041-047-054-059-064-141-147-310900-
EAST CENTRAL FLORIDA

CITY           SKY/WX    TMP DP  RH WIND       PRES   REMARKS
DAYTONA BEACH  MOCLDY    76  73  91 SW6       29.95F
DELAND           N/A     75  73  94 SW5       29.97S
JFK SPACE CTR  CLOUDY    76  73  88 SW6       29.96S
CAPE CANAVERAL CLOUDY    76  73  88 SW7       29.95S
PATRICK AFB    MOCLDY    78  73  87 SW12      29.96S
MELBOURNE      MOCLDY    74  72  93 S5        29.97S
VERO BEACH     CLOUDY    77  73  87 SW5       29.98F
FT PIERCE      MOCLDY    76  74  93 SW5       29.98F
STUART         PTCLDY    75  73  94 S3        30.00S

STATION/POSITION SKY/WX   TEMP    WIND        PRES    WAVE   SWELL
                          AIR SEA DIR/SP/G            HT/PER HT/PER
                          (F)     (DEG/KT/KT) (MB)    (FT/S) (FT/S)
28.5N   80.2W              80 81  220/ 14/ 16 1014.6F
28.9N   78.5W              83 84  230/ 14/ 16 1014.8F
TRIDENT PIER               77 79  220/  8/ 10 1015.3F
28.4N   80.5W                 79                N/A     1/11
27.5N   80.2W                 77                N/A     1/ 8

$$
FLZ050-056-061-142-242-148-248-149-249-151-251-155-255-
160-260-310900-
WEST CENTRAL FLORIDA

CITY           SKY/WX    TMP DP  RH WIND       PRES   REMARKS
CRYSTAL RIVER  FAIR      75  73  94 CALM      29.94F
INVERNESS      FAIR      73  73 100 CALM      29.96F
BROOKSVILLE    CLEAR     75  74  96 S3        29.97S
ZEPHYRHILLS    FAIR      70  70 100 CALM      29.98S
CLEARWATER     MOCLDY    77  72  84 SW5       29.96S
TAMPA INTL     MOCLDY    80  75  84 SW12      29.97R
TAMPA EXEC     PTCLDY    77  73  88 CALM      29.97S
PLANT CITY     PTCLDY    77  77 100 CALM      29.99S
MACDILL AFB    DRIZZLE   77  77 100 W6        29.96F
PETER O KNIGHT RAIN      81  77  89 SW7       29.96F
ST PETERSBURG  MOCLDY    80  75  84 NW5       29.94F
SARASOTA       MOCLDY    81  75  82 SW9       29.96S
VENICE         FAIR      82  75  78 SW8       29.98S

STATION/POSITION SKY/WX   TEMP    WIND        PRES    WAVE   SWELL
                          AIR SEA DIR/SP/G            HT/PER HT/PER
                          (F)     (DEG/KT/KT) (MB)    (FT/S) (FT/S)
CEDAR KEY                  82     240/  8/ 11 1014.0F
28.5N   84.5W              83 85  210/ 12/ 14 1013.0F   2/ 5
27.3N   84.2W                 84                N/A     3/ 5
CLEARWATER BEACH           83 84  220/ 14/ 16 1014.5F
MIDDLE TAMPA BAY           82     260/ 12/ 15 1014.8F
VENICE                     83 85  240/ 11/ 11 1014.5F

$$
FLZ066-069-070-075>078-162-262-165-265-310900-
SOUTHWEST FLORIDA AND KEYS

CITY           SKY/WX    TMP DP  RH WIND       PRES   REMARKS
PUNTA GORDA    CLOUDY    79  78  97 S5        29.99F
FT MYERS       CLOUDY    80  77  90 CALM      29.97F
SOUTHWEST INTL MOCLDY    80  76  87 CALM      29.98F
NAPLES         MOCLDY    84  76  76 SW6       29.98F
MARCO ISLAND   SUNNY     81  73  78 SW5       29.98F
MARATHON       PTCLDY    82  76  81 CALM      30.00F
KEY WEST NAS   PTCLDY    83  75  77 S3        30.00F
KEY WEST INTL  PTCLDY    85  76  74 S5        30.00F

STATION/POSITION SKY/WX   TEMP    WIND        PRES    WAVE   SWELL
                          AIR SEA DIR/SP/G            HT/PER HT/PER
                          (F)     (DEG/KT/KT) (MB)    (FT/S) (FT/S)
VENICE                     83 85  240/ 11/ 11 1014.5F
NAPLES                        84              1016.5F
26.0N   85.6W              83 85  230/ 17/ 27 1013.9F   2/ 5
DRY TORTUGAS               85     180/  8/  8 1016.1F
NW FL BAY                  87     180/  3/  5 1016.3
SAND KEY                   84     190/  3/  5 1015.9F
SOMBRERO KEY               85     190/  4/  4 1016.6F
LONG KEY                   85 89  190/  5/  6 1016.6F
MOLASSES REEF              85 87  220/  5/  7 1015.9F

$$
FLZ067-068-071>074-168-172>174-310900-
SOUTHEAST FLORIDA

CITY           SKY/WX    TMP DP  RH WIND       PRES   REMARKS
W PALM BEACH   PTCLDY    79  73  82 CALM      30.00S
FT LAUDER-EXEC CLOUDY    81  73  76 SW3       30.00S
FT LAUDERDALE  CLOUDY    81  74  79 SW3       29.99F
POMPANO BEACH  CLOUDY    80  73  79 CALM      30.00S
PEMBROKE PINES CLOUDY    82  73  74 S3        30.01S
OPA LOCKA      CLOUDY    81  75  82 S3        30.00F
MIAMI          MOCLDY    83  73  72 S3        30.00F
WEST KENDALL   MOCLDY    81  75  82 SW3       30.00F
HOMESTEAD      PTCLDY    78  75  89 CALM      30.00S

STATION/POSITION SKY/WX   TEMP    WIND        PRES    WAVE   SWELL
                          AIR SEA DIR/SP/G            HT/PER HT/PER
                          (F)     (DEG/KT/KT) (MB)    (FT/S) (FT/S)
PORT EVERGLADES            82     180/  3/  3 1015.8S
VIRGINIA KEY               84 87  250/  4/  5 1015.7F
LAKE WORTH                 81 83  230/  3/  4 1015.4F
SETTLEMENT POINT           85     240/  5/  8 1016.6S

$$



USA.gov is the U.S. government's official web portal to all federal, state and local government web resources and services.